Presure
174 173 173 177 172 165 163 155 160 159 159 165 162 157 154 154 156 158 161 161 153 150 140 144 147 147 154 152 154 154 155 155 154 156 156 157 154 155 155 154 153 156 146
156 164 160 168 162 135 159 163 158 156 153 159 161 156 150 147 144 146 150 152 153 150 152 149 150 143 148 150 145 150 141 140 144 145 145 145 145 149 157 159 158 155 154
155 158 142 160 154 153 154 154 156 146 142 141 151 154 154 153 151 151 134 147 145 147 150 146 146 147 150 150 146 145 145 144 132 145 150 150 149 148 149 154 153 165 156
157 156 154 148 144 149 151 150 148 146 141 121 150 144 144 145 146 151 148 146 145 144 145 146 149 148 147 145 145 145 145 145 145 150 159 159 157 150 157 156 155 152 162
141 139 146 137 143 147 147 147 144 144 143 145 145 148 148 144 144 142 142 143 143 143 148 140 139 141 142 149 150 149 152 158 155 151 151 147 148 154 157 161 160 154 164
146 143 145 140 147 148 143 145 145 144 143 142 144 145 143 143 140 143 146 145 141 142 143 142 144 146 146 146 146 153 145 152 151 151 146 149 149 144 150 154 156 158 159
148 145 150 150 142 152 150 145 143 144 145 147 145 145 144 146 144 140 139 146 149 145 144 145 152 149 144 152 144 141 151 145 142 143 144 145 149 163 154 153 147 151 145
147 146 153 155 140 133 143 144 144 143 143 152 142 142 145 148 152 146 145 148 148 142 142 142 143 146 142 138 147 159 165 152 149 147 150 160 147 145 149 162 170 172 169
152 155 158 154 153 150 145 143 147 154 157 149 148 149 150 149 147 141 142 144 132 143 152 146 133 136 146 153 144 149 147 152 150 156 158 158 162 164 155 149 159 163 179
147 151 163 149 147 146 147 146 146 146 150 150 144 137 143 145 127 148 143 140 138 146 141 143 152 147 130 135 141 142 143 152 160 163 158 156 162 167 165 165 173 170 164
149 163 138 136 140 147 144 149 143 151 146 136 138 144 139 135 131 135 134 132 136 141 140 135 134 135 144 153 152 145 158 152 151 153 165 169 167 169 157 163 163 172 173
142 142 126 134 138 146 148 152 134 130 140 143 142 125 132 133 138 135 135 134 139 139 146 158 154 145 145 149 138 151 160 157 159 163 152 173 171 167 171 169 167 173 167
156 140 149 130 137 137 140 142 136 135 127 131 124 135 137 133 141 141 131 131 135 131 152 154 145 145 147 151 154 157 155 162 166 164 169 160 179 186 182 177 176 162 180
159 136 150 130 149 123 141 148 123 127 130 134 147 128 126 130 136 141 145 152 150 155 130 132 136 150 155 151 153 160 161 163 170 157 167 168 200 188 175 182 176 216 246
156 131 123 145 130 145 128 137 137 136 156 132 153 129 143 130 150 149 148 153 143 147 130 145 150 148 134 153 159 161 164 167 169 157 175 174 173 175 167 187 252 246 251
141 140 141 152 148 125 160 135 138 120 126 148 156 131 141 151 155 155 147 144 136 153 146 146 135 152 152 152 161 166 171 180 176 173 181 173 206 219 247 208 252 246 254
140 135 126 126 119 133 140 134 137 146 150 149 127 133 151 155 148 140 133 151 152 147 147 151 153 153 154 164 174 175 162 169 178 183 214 252 252 247 243 253 267 271 248
131 136 145 119 125 138 140 147 138 146 152 133 128 137 144 148 154 145 152 149 153 144 153 159 159 162 172 178 173 171 172 172 169 251 255 264 252 268 275 310 262 299 333
134 142 145 144 132 123 132 139 138 136 142 139 144 147 160 158 158 153 151 153 141 161 153 163 170 175 176 176 159 192 178 190 253 252 261 282 275 290 298 297 328 412 388
161 146 144 126 147 145 144 151 135 149 159 153 151 148 154 154 142 157 144 161 162 162 179 172 177 174 167 176 175 171 240 252 254 266 270 280 287 302 321 374 398 376 340
151 159 126 152 153 154 163 160 153 155 149 153 152 150 142 153 136 165 166 171 183 179 184 182 163 181 176 169 237 251 253 244 263 275 277 294 302 321 397 381 379 392 342
149 156 159 161 158 142 145 142 152 165 151 144 155 158 150 165 163 177 163 163 188 177 177 155 172 185 175 250 256 261 265 263 289 271 290 314 352 393 375 357 289 384 381
151 152 127 159 156 166 158 162 163 153 159 163 145 164 173 158 172 161 176 184 171 182 182 183 172 229 248 261 181 262 279 270 289 290 327 423 387 359 342 328 348 344 340
148 159 148 163 154 137 165 149 169 154 155 175 183 154 156 161 169 161 176 175 167 207 202 196 238 215 261 221 262 277 282 285 307 319 400 379 361 336 325 323 327 332 325
162 161 156 135 163 166 157 140 170 173 174 149 154 175 168 175 188 181 161 185 179 160 207 224 194 277 268 258 300 301 290 304 456 407 311 369 343 323 318 309 307 318 314
161 160 159 158 165 161 160 169 171 160 148 147 173 173 168 171 198 215 180 190 208 216 235 287 260 263 282 277 287 293 349 295 367 334 406 369 345 325 313 303 328 316 296
Wind_Speed
22 22 22 23 21 16 12 8 11 11 10 11 11 12 14 15 14 15 11 12 19 23 36 35 33 36 29 34 33 33 34 36 39 41 43 46 48 50 52 54 56 57 64
10 16 13 19 17 15 12 13 9 10 10 9 7 11 16 18 23 25 21 20 20 25 26 29 31 39 35 36 41 40 48 52 49 49 51 53 55 56 57 59 61 64 66
11 12 7 12 8 8 9 10 9 13 17 20 14 11 12 14 18 20 37 25 29 31 32 34 37 39 40 42 44 46 48 50 62 54 56 59 61 63 64 66 67 70 70
10 9 8 7 10 8 8 9 11 14 20 37 16 21 22 25 25 26 28 30 32 36 37 39 41 43 45 47 49 50 53 56 57 60 63 64 67 70 72 73 74 74 78
9 13 9 15 12 10 11 12 15 16 19 19 21 23 24 27 29 31 34 36 38 40 40 46 49 50 53 54 56 58 61 63 64 66 67 68 71 76 80 82 84 82 85
7 11 11 15 12 12 16 16 19 22 24 25 25 27 29 31 34 35 36 40 44 46 47 50 52 54 56 57 59 65 65 69 71 73 74 76 78 77 82 87 89 90 88
11 14 13 15 18 14 18 22 25 26 27 28 29 32 33 35 37 40 43 45 47 50 53 57 59 60 60 67 66 68 74 73 74 78 80 82 85 91 93 92 84 88 78
16 19 19 19 22 27 25 27 29 31 32 30 33 36 38 40 40 44 48 49 52 55 59 61 64 68 67 66 76 75 81 84 87 89 93 97 91 91 95 105 105 106 106
19 20 21 21 23 26 28 31 32 31 31 36 37 39 41 44 47 50 54 54 54 64 66 65 60 68 75 78 76 83 87 89 92 95 97 99 102 104 101 96 107 108 113
24 23 24 25 28 30 32 33 35 37 37 39 43 42 47 51 47 59 59 59 62 68 71 74 79 79 70 78 83 87 94 97 99 101 104 105 109 112 112 113 117 114 111
27 26 34 34 35 35 38 38 40 42 44 43 49 53 54 56 54 64 69 67 73 77 79 77 77 83 90 91 93 96 101 103 105 104 113 115 117 120 112 117 115 124 124
35 36 39 41 42 40 40 42 44 45 45 51 54 46 56 59 67 68 74 77 83 86 90 89 89 90 94 98 92 103 108 110 114 118 112 125 127 121 127 125 122 128 114
36 42 40 47 48 50 49 50 53 53 51 55 52 64 68 66 70 74 68 74 82 87 94 96 97 98 101 104 109 111 114 119 122 124 126 118 133 133 138 134 133 107 140
41 47 45 51 48 47 54 59 49 57 61 66 69 61 64 72 80 82 82 84 84 88 93 94 102 105 108 108 113 119 120 125 130 111 129 130 128 136 138 142 136 138 129
45 52 46 55 58 60 59 62 65 68 68 69 72 69 80 75 84 85 86 88 85 87 92 104 106 109 96 117 122 125 128 133 135 125 139 137 137 142 125 142 125 126 129
54 54 59 60 65 62 65 70 72 58 68 81 81 75 84 89 91 92 93 90 86 97 96 104 100 115 117 120 128 131 134 136 139 140 145 141 139 139 128 126 131 131 133
60 63 64 65 56 68 72 75 78 83 84 87 74 83 93 94 96 90 87 104 106 103 104 111 117 118 122 129 132 136 124 134 138 135 131 128 129 131 132 138 131 125 133
66 69 71 59 68 72 73 77 81 85 86 86 81 94 98 99 102 102 107 107 111 103 114 118 125 128 135 135 130 134 139 133 125 135 134 132 134 129 130 118 119 120 112
75 77 78 78 70 68 79 83 87 90 92 93 98 100 103 105 107 106 107 111 99 119 113 124 127 132 135 137 108 143 143 145 135 136 137 131 131 129 118 119 116 62 59
82 84 84 65 81 83 85 88 91 94 96 97 99 102 104 105 96 113 100 118 123 123 130 127 130 132 127 141 141 129 133 139 136 136 133 134 130 124 120 89 60 57 57
88 91 64 84 87 88 90 91 94 97 99 102 103 102 93 109 93 121 122 128 132 131 133 135 120 141 141 132 144 138 138 133 137 131 128 132 126 122 69 54 52 44 46
92 95 98 99 94 92 94 95 101 108 104 95 113 115 104 121 120 130 116 125 130 132 134 106 133 146 136 140 136 138 140 137 126 125 132 126 99 55 50 49 65 18 18
98 100 66 102 100 107 106 109 112 104 114 119 99 125 129 105 129 118 136 135 136 145 142 141 129 149 144 141 87 142 136 131 132 126 116 49 47 48 47 46 30 23 20
98 109 95 111 105 86 114 99 120 102 109 128 131 104 104 121 133 117 138 137 124 147 141 144 154 136 144 128 143 143 134 132 133 120 59 50 43 46 42 37 29 20 22
115 113 110 77 117 119 112 85 124 128 130 93 101 135 131 139 141 142 115 137 141 104 142 151 129 145 144 145 140 131 136 139 63 58 74 45 43 42 36 32 28 20 21
119 115 117 113 119 115 105 126 130 115 92 96 137 137 129 135 141 149 127 147 143 147 155 142 148 148 147 139 138 136 120 99 72 66 19 26 30 31 30 28 15 19 19
Wind_Direction
128 125 120 115 118 122 132 153 153 166 186 164 174 202 220 230 236 248 270 284 274 271 267 265 265 265 273 269 276 280 285 288 286 288 288 289 285 285 283 280 278 279 273
144 128 131 125 135 278 155 154 171 187 217 205 232 232 240 247 254 253 268 276 286 271 281 273 277 270 279 283 277 288 277 276 282 284 284 282 280 284 291 290 288 286 283
136 135 252 139 160 181 188 194 198 236 248 254 260 280 294 299 290 288 266 285 279 285 294 291 290 293 295 293 289 287 287 286 274 287 292 290 288 286 285 288 286 288 286
138 141 153 200 230 221 227 242 254 257 266 281 290 270 274 278 284 299 294 292 291 290 292 293 295 294 293 291 290 290 289 288 288 293 298 297 296 289 294 293 291 289 294
243 245 227 255 250 255 267 275 274 277 280 286 289 294 294 291 293 291 292 293 293 291 293 292 291 291 291 296 297 296 298 299 297 294 294 291 292 297 296 292 292 290 288
257 263 267 263 279 286 276 278 278 277 279 281 285 288 290 291 291 292 291 291 292 292 292 291 293 295 297 298 298 300 295 298 297 296 294 296 294 289 293 294 294 292 292
261 261 271 270 268 275 273 273 277 281 287 292 292 289 289 291 290 292 291 295 297 297 297 298 299 300 300 301 300 298 299 298 296 295 294 294 293 292 293 293 292 293 290
273 275 281 284 274 281 280 282 286 288 288 294 289 290 293 294 297 294 295 297 300 300 301 301 302 303 303 301 303 297 294 294 296 296 294 293 296 295 295 292 291 290 291
282 284 286 286 288 287 286 286 290 295 298 293 296 297 297 300 299 299 300 301 296 302 297 299 297 301 301 299 297 297 297 293 293 292 292 291 292 291 291 292 292 293 292
281 283 286 284 287 289 289 291 294 297 297 297 300 299 302 300 294 300 299 300 304 298 301 301 297 299 297 301 300 299 297 296 295 294 294 294 293 292 292 293 293 294 295
281 280 288 289 290 293 293 298 296 297 297 299 302 298 303 306 306 307 307 306 307 304 304 304 302 302 296 296 296 295 296 295 296 298 297 295 294 294 296 296 297 296 298
284 285 297 296 295 290 293 291 299 307 303 295 293 304 305 305 300 303 305 307 301 303 299 298 298 299 300 299 299 299 299 298 298 298 298 296 295 294 296 297 299 298 299
280 287 282 301 295 295 297 296 303 303 312 309 300 302 300 305 296 301 301 304 303 306 299 300 299 299 299 299 299 300 300 300 298 297 297 298 297 295 295 297 299 299 298
286 286 286 300 282 307 292 286 308 307 308 301 286 306 309 307 301 295 294 291 295 298 297 299 300 300 299 300 300 299 299 299 299 297 299 299 292 297 300 300 300 297 297
276 296 292 280 299 284 304 294 292 295 289 305 288 305 292 302 290 292 294 295 296 296 298 298 298 300 302 300 300 300 301 301 300 300 297 298 299 299 302 299 298 297 298
278 291 282 276 278 309 282 295 292 308 306 291 292 301 297 293 294 295 297 298 299 296 297 299 299 298 299 300 300 300 299 297 298 299 297 301 301 299 300 299 298 297 293
281 280 296 299 283 291 286 295 293 290 293 292 305 302 295 295 296 300 301 297 298 301 300 298 297 298 299 300 297 298 299 299 297 300 302 302 301 299 296 294 289 291 293
292 287 279 285 297 285 286 287 290 289 291 298 304 300 296 295 294 298 296 298 297 300 299 298 298 299 300 299 299 300 299 301 303 305 306 303 299 298 298 297 292 294 297
289 281 278 280 294 297 295 289 290 292 290 296 292 294 294 294 295 295 296 297 297 298 298 299 300 301 301 301 300 302 301 305 308 308 304 303 301 301 299 301 302 291 287
282 280 282 291 287 284 284 290 293 287 289 290 292 293 294 295 298 297 298 298 298 299 300 302 303 302 301 303 303 304 311 312 308 308 304 305 304 304 306 303 293 289 292
280 282 295 288 282 284 289 288 286 288 291 292 294 298 297 297 296 298 299 300 301 302 301 301 303 302 304 305 312 311 310 309 309 308 308 306 306 305 304 295 294 286 285
281 284 284 285 286 290 290 293 291 292 295 297 297 297 299 298 299 299 300 303 301 301 302 299 305 302 304 311 313 313 311 309 307 309 311 307 305 301 300 296 303 285 232
284 285 291 288 290 291 290 293 293 294 297 296 294 297 299 299 300 302 301 300 304 302 303 303 305 313 312 313 305 313 310 309 311 310 307 298 296 299 300 299 293 276 258
285 286 291 288 290 289 292 294 293 293 293 296 297 300 297 303 302 300 302 303 302 311 306 305 313 309 314 310 314 311 311 311 310 309 300 296 296 298 298 295 289 269 265
284 287 288 288 290 291 293 289 293 293 295 298 296 298 299 300 298 301 302 300 302 306 309 312 307 313 313 314 312 310 311 308 302 301 302 287 290 292 290 288 284 270 268
283 286 287 290 288 290 295 292 291 298 298 296 297 300 301 302 303 310 303 302 307 309 310 311 315 314 311 310 312 311 310 310 306 301 264 268 278 281 283 284 266 250 262